Showing default

ESSA 2 (OT-2), 2091

Orbit data source: Space-Track

ESSA 2 (OT-2), 2091 is a payload satellite owned by ESSA (US) in SSO that was launched on Mon, 28 Feb 1966 UTC via a THOR DELTA E launch vehicle from the Air Force Eastern Test Range (AFETR). Payload-class satellites include a variety of spacecraft equipped with specific instruments for various scientific and technological missions. These include communications satellites like Starlink; space stations such as the ISS; scientific satellites like the Hubble; Earth observation satellites from companies like Planet Labs, Umbra, and HawkEye 360; GPS; miniature CubeSats for education and research; and military/defense satellites.

Loading next visibility...
Identifier
2091, 1966-016A
Orbit
SSO
Country
Flag of USUS
Related business
Manufacturer
RCA/East Windsor
Mission
Non-operational spacecraft
Bus & Motor
TIROS I, Unknown motor
Mass
130 kg wet, 130 kg dry
Launch date (UTC)
1966-02-28 (60 years ago)
Launch vehicle
THOR DELTA E
Launch site
Air Force Eastern Test Range (AFETR)
Object type
Payload
Rocket body
Debris
Shape & HBR
Unknown
Radar Cross Section
Medium (>0.1 m² and <1 m²)

Expand to show TLE details & history
Last TLE update: 14 hours ago

TLE from 14 hours ago
0 ESSA 2 (OT-2)
1  2091U 66016A   26035.39519248 -.00000029  00000-0  73514-4 0  9994
2  2091 101.2406 307.8921 0038852 165.4203 308.7677 12.69428191776770
Epoch: 2026-02-04T09:29Z
TLE epoch observation values (Epoch: 2026-02-04T09:29:04.630Z)
Latitude
63.8706°
Longitude
-125.16463°
Altitude
1,376.299 km
Speed
7.185 km/s
True Right ascension
10h 06m 40s
True Declination
63° 44' 43"
Sunlit
Object was in full shadow at epoch
Visualization orbit readout
Latitude
Unknown
Longitude
Unknown
Altitude
Unknown
Speed
Unknown
Apparent Right ascension
Unknown
Apparent Declination
Unknown
Sunlit
N/A
Visualization observer readout
Local Sidereal Time
01:37:05
Azimuth
Unknown
Elevation
Unknown
Doppler factor
Unknown
Orbital elements
Apogee altitude
1,411.911 km
Perigee altitude
1,351.613 km
Semi-major axis
7,759.899 km
Eccentricity
0.00389
Inclination
101.2406°
RAAN
307.8921°
Arg. of periapsis
165.4203°
True anomaly
308.41952°
Mean anomaly
308.7677°
Eccentric anomaly
308.59371°
Mean motion
3.17511 °/min
Orbital period
113.38 mins
BSTAR
0.000073514
Loading maneuver chart data...
Computing Atmospheric mass density...
Loading historical data...
Loading historical data...
Loading historical data...
Loading historical data...
Loading historical data...
Loading historical data...
Loading historical data...
Other satellites on launch #16 in the year 1966 (1966-02-28 UTC)

Documentation

Showing up to 5 results
|